Tracking 25949 objects as of 8-Aug-2022
HD Live streaming from Space Station
objects crossing your sky now

COSMOS 1275 DEB

Track COSMOS 1275 DEB now!
10-day predictions


NORAD ID: 17626
Int'l Code: 1981-053KY
Perigee: 929.9 km
Apogee: 1,145.5 km
Inclination: 82.9 °
Period: 105.8 minutes
Semi major axis: 7408 km
RCS: 0.0074 m2 (small)
Launch date: June 4, 1981
Source: Commonwealth of Independent States (former USSR) (CIS)
Launch site: PLESETSK MISSILE AND SPACE COMPLEX (PKMTR)

Note: This is SATELLITE DEBRIS
aabbcc
Your satellite tracking list
Your tracking list is empty




NASA's NSSDC Master Catalog

Two Line Element Set (TLE):
1 17626U 81053KV  22220.45537102  .00001224  00000-0  14763-2 0  9996
2 17626  82.8686 107.1108 0145507 144.1045 335.9861 13.61422715847760
Source of the keplerian elements: AFSPC